Regional Weather Roundup
Issued by NWS

Home | Current Version | Previous Version | Graphics & Text | Print | Product List | Glossary On
Versions: 1 2 3 4 5 6 7 8 9 10 11 12 13 14 15 16 17 18 19 20 21 22 23 24 25 26 27 28 29 30 31 32 33 34 35 36 37 38 39 40 41 42 43 44 45 46 47 48 49 50
000
ASUS43 KMPX 011201
RWRMN
WEATHER ROUNDUP FOR MINNESOTA
NATIONAL WEATHER SERVICE TWIN CITIES/CHANHASSEN MN
700 AM CDT WED OCT 01 2014


NOTE: "FAIR" INDICATES FEW OR NO CLOUDS BELOW 12,000 FEET WITH NO
SIGNIFICANT WEATHER AND/OR OBSTRUCTIONS TO VISIBILITY. N/A MEANS
CURRENT SKY AND/OR WEATHER CONDITIONS ARE NOT AVAILABLE.

MNZ060>063-068>070-011300-
   Twin Cities Metro

CITY           SKY/WX    TMP DP  RH WIND       PRES   REMARKS
TWIN CITIES    LGT RAIN  50  46  86 SE12      29.84S
6HR MIN TEMP:  50; 6HR MAX TEMP:  52; 6HR PCP: TRACE;

ST PAUL        CLOUDY    50  46  86 SE12      29.87R
CRYSTAL        CLOUDY    53  45  74 SE13      29.83R
BLAINE         CLOUDY    52  46  82 SE9G20    29.84S
LAKEVILLE      LGT RAIN  48  46  93 SE10G16   29.84S
EDEN PRAIRIE   LGT RAIN  50  47  89 SE12      29.83R FOG
6HR MIN TEMP:  50; 6HR MAX TEMP:  53; 6HR PCP:  0.04;

SOUTH ST PAUL  CLOUDY    51  47  86 SE8       29.86R
LAKE ELMO      CLOUDY    50  46  87 SE8       29.87S
$$
MNZ001>005-007-008-013>017-022>024-027-028-011300-
   Northwest Minnesota

CITY           SKY/WX    TMP DP  RH WIND       PRES   REMARKS
BEMIDJI        CLOUDY    53  49  87 S13       29.70R
HALLOCK        CLEAR     59  52  77 SW22G29   29.50R
ROSEAU         CLOUDY    57  52  82 S21G28    29.56S
WARROAD        CLOUDY    55  52  88 SE18G25   29.59S
THIEF RVR FALL CLOUDY    61  54  77 S23G29    29.57S
CROOKSTON      CLOUDY    61  54  77 SW18G26   29.58S
FOSSTON        CLOUDY    55  52  88 S18       29.63R
DETROIT LAKES  CLOUDY    59  55  88 S12       29.68S
PARK RAPIDS    CLOUDY    51  50  96 S16       29.72S FOG
MAHNOMEN       CLOUDY    59  55  87 S12G20    29.63S
$$
MNZ006-009>011-018-025>026-011300-
   North Central Minnesota

CITY           SKY/WX    TMP DP  RH WIND       PRES   REMARKS
BAUDETTE       CLOUDY    52  47  83 SE9G17    29.66F
FLAG ISLAND    CLOUDY    54  50  87 S31G37    29.59S
INTL FALLS     CLOUDY    51  46  83 S9        29.73F
6HR MIN TEMP:  45; 6HR MAX TEMP:  51;

WASKISH        MOCLDY    52  48  87 SE16G23   29.68S
BIG FORK       CLOUDY    50  46  87 S12G17    29.77S
LONGVILLE      CLOUDY    52  48  87 SE12G18   29.76S FOG
GRAND RAPIDS   CLOUDY    46  43  87 SE13G18   29.79S
CRANE LAKE     CLOUDY    48  45  87 SE5       29.80S
ORR            CLOUDY    48  43  81 SE10G16   29.76S
COOK           CLOUDY    48  45  87 SE5       29.81R
WALKER         CLOUDY    50  49  95 S10G17    29.74R FOG
$$
MNZ012-019>021-037-011300-
   Northeast Minnesota

CITY           SKY/WX    TMP DP  RH WIND       PRES   REMARKS
DULUTH         CLOUDY    47  43  86 SE13      29.85F
6HR MIN TEMP:  47; 6HR MAX TEMP:  49;

ELY            CLOUDY    46  45  93 SE5       29.83F
HIBBING        CLOUDY    49  44  83 SE13      29.82F
EVELETH        CLOUDY    46  43  87 SE7       29.85S
DULUTH HARBOR  CLOUDY    50  46  87 CALM      29.88F
TWO HARBORS    CLOUDY    46  41  81 E6        29.87S
SILVER BAY     MOCLDY    46  46 100 SE5       29.88S
GRAND MARAIS     N/A     49  46  90 E6        29.93F
G MARAIS ARPRT FOG       43  39  87 SE6       29.91F VSB 1/4
$$
MNZ029>031-032-039>041-046>048-054>057-064-011300-
   West Central Minnesota

CITY           SKY/WX    TMP DP  RH WIND       PRES   REMARKS
FERGUS FALLS   MOCLDY    61  57  88 S13       29.69R
WHEATON        PTCLDY    57  55  94 SE10      29.70R
MORRIS         CLOUDY    59  57  94 SE13G21   29.71R FOG
ALEXANDRIA     CLOUDY    55  54  96 SE14      29.75R FOG
ELBOW LAKE     CLOUDY    58  57  96 SE13      29.69F
WADENA         CLOUDY    52  52 100 S10       29.73R
GLENWOOD       DRIZZLE   54  54 100 SE10      29.75S
APPLETON       CLOUDY    63  57  82 SE10      29.71S FOG
BENSON         CLOUDY    55  55 100 S7        29.74R FOG
ORTONVILLE     MOCLDY    61  57  88 SE7       29.69S
MADISON        MOCLDY    64  61  88 SE6       29.71S FOG
WILLMAR        CLOUDY    55  52  88 SE13G18   29.77S FOG
$$
MNZ033>034-036-042>043-049>051-058-059-011300-
   Central Minnesota

CITY           SKY/WX    TMP DP  RH WIND       PRES   REMARKS
ST CLOUD       CLOUDY    53  46  77 SE9       29.80S
6HR MIN TEMP:  52; 6HR MAX TEMP:  54; 6HR PCP: TRACE;

SAUK CENTRE    DRIZZLE   51  50  97 SE10      29.77R
PAYNESVILLE    CLOUDY    50  48  93 E12G18    29.78S
AITKIN         CLOUDY    52  46  82 SE7       29.79S
PINE RIVER     CLOUDY    50  48  93 SE8       29.81R FOG
BRAINERD       CLOUDY    50  47  89 SE10      29.79R
STAPLES        CLOUDY    50  48  93 S7        29.76R FOG
LONG PRAIRIE   CLOUDY    50  50 100 SE15      29.77R FOG
LITTLE FALLS   MOCLDY    50  45  81 SE10      29.78F
LITCHFIELD     CLOUDY    54  52  94 SE8       29.79S
BUFFALO        CLOUDY    51  46  80 E9        29.82S
MAPLE LAKE     CLOUDY    53  49  85 SE7       29.82S
$$
MNZ037-044-045-052-053-011300-
   East Central Minnesota

CITY           SKY/WX    TMP DP  RH WIND       PRES   REMARKS
MORA           CLOUDY    46  43  87 SE6       29.85F
CAMBRIDGE      CLOUDY    52  43  71 SE7       29.82S
RUSH CITY      CLOUDY    48  44  85 SE6       29.86S
MOOSE LAKE     CLOUDY    46  43  87 S3        29.84R
HINCKLEY       CLOUDY    48  45  87 SE6       29.85S
CLOQUET        CLOUDY    46  43  87 SE6       29.85S
MCGREGOR       CLOUDY    48  45  87 SE7       29.82S
$$
MNZ071>073-080-081-089-090-097-098-011300-
   Southwest Minnesota

CITY           SKY/WX    TMP DP  RH WIND       PRES   REMARKS
MONTEVIDEO     CLOUDY    61  61 100 S6        29.74R FOG
GRANITE FALLS  CLOUDY    60  58  93 SE12      29.75R FOG
CANBY          CLOUDY    63  60  91 SE6       29.73S
MARSHALL       CLOUDY    61  55  82 S9        29.73R
REDWOOD FALLS  CLOUDY    59  55  87 SE15      29.76R
OLIVIA         CLOUDY    55  52  88 SE10      29.75S
PIPESTONE      CLOUDY    61  59  94 S7        29.74R FOG
WINDOM         CLOUDY    57  55  94 SE8       29.77R
WORTHINGTON    CLOUDY    57  55  94 SE8       29.77R
JACKSON        CLOUDY    55  54  94 S8        29.78R
TRACY          CLOUDY    60  58  91 S9        29.74R
SLAYTON        CLOUDY    58  57  96 SE7       29.75S
$$
MNZ065>067-074>077-082>085-091>093-011300-
   South Central Minnesota

CITY           SKY/WX    TMP DP  RH WIND       PRES   REMARKS
MANKATO        CLOUDY    52  46  82 SE18      29.80S
NEW ULM        CLOUDY    55  54  94 SE9       29.79R
ST JAMES       RAIN      55  54  94 SE7       29.80R
FAIRMONT       CLOUDY    54  48  82 SE7       29.78S
GLENCOE        CLOUDY    54  47  77 SE8       29.80S
FARIBAULT      RAIN      52  48  87 SE9       29.84S
OWATONNA       RAIN      50  48  93 SE15      29.83F
WASECA         LGT RAIN  50  46  87 SE10G18   29.84S
ALBERT LEA     RAIN      50  50 100 SE16G23   29.83S
$$
MNZ078>079-086>088-094>096-011300-
   Southeast Minnesota

CITY           SKY/WX    TMP DP  RH WIND       PRES   REMARKS
ROCHESTER      LGT RAIN  48  46  93 SE15G23   29.88S
6HR MIN TEMP:  47; 6HR MAX TEMP:  48; 6HR PCP:  0.03;

RED WING       LGT RAIN  50  46  87 SE13G20   29.87S
STANTON        RAIN      51  47  86 SE9       29.84S
DODGE CENTER   RAIN      48  48 100 SE14G20   29.86S
WINONA         LGT RAIN  48  46  93 SE8       29.92F
AUSTIN         HVY RAIN  48  46  93 SE10      29.86S
PRESTON        CLOUDY    47  45  93 SE10      29.90F
$$
ABBREVIATIONS USED IN REMARKS
   TC - TEMPERATURES IN CELSIUS
  WCI - WIND CHILL INDEX
   HX - HEAT INDEX
  VSB - VISIBILITY
$$



USA.gov is the U.S. government's official web portal to all federal, state and local government web resources and services.